Regional Weather Roundup
Issued by NWS

Home | Current Version | Previous Version | Graphics & Text | Print | Product List | Glossary On
Versions: 1 2 3 4 5 6 7 8 9 10 11 12 13 14 15 16 17 18 19 20 21 22 23 24 25 26 27 28 29 30 31 32 33 34 35 36 37 38 39 40 41 42 43 44 45 46 47 48 49 50
761
ASUS43 KFSD 201810
RWRSD

WEATHER ROUNDUP FOR SOUTH DAKOTA
NATIONAL WEATHER SERVICE SIOUX FALLS SD
1200 PM CST MON FEB 20 2017

NOTE: "FAIR" INDICATES FEW OR NO CLOUDS BELOW 12,000 FEET WITH NO
SIGNIFICANT WEATHER AND/OR OBSTRUCTIONS TO VISIBILITY.


SDZ001>005-009-010-012>017-201900-
NORTHWEST AND NORTH CENTRAL SOUTH DAKOTA

CITY           SKY/WX    TMP DP  RH WIND       PRES   REMARKS
BUFFALO          N/A     54  22  28 NW23G30   29.73S
FAITH            N/A     54  33  45 NW26G32   29.77S
MOBRIDGE       MOSUNNY   45  38  76 NW8       29.71S
$$

SDZ012>016-024>037-041>051-057-063-072>074-201900-
SOUTHWEST AND SOUTH CENTRAL SOUTH DAKOTA

CITY           SKY/WX    TMP DP  RH WIND       PRES   REMARKS
RAPID CTY ARPT SUNNY     59  22  24 NW17G24   29.82F
PIERRE         SUNNY     49  42  77 NW14      29.75R
CUSTER         SUNNY     46  19  34 NW12G21   29.86S
ELLSWORTH AFB  SUNNY     57  24  27 NW15      29.82S
PHILIP         SUNNY     57  37  47 NW17G28   29.81S
PINE RIDGE     SUNNY     54  36  50 W10       29.87F
SPEARFISH      FAIR      52  23  32 W16G23    29.83S
WINNER         FAIR      54  44  69 NW24      29.78R
$$

SDZ004>011-016>023-039-040-201900-
NORTHEAST SOUTH DAKOTA

CITY           SKY/WX    TMP DP  RH WIND       PRES   REMARKS
ABERDEEN       PTSUNNY   46  38  73 N17       29.67R
WATERTOWN      CLOUDY    51  51 100 S8        29.61F FOG
BROOKINGS      PTSUNNY   55  53  93 S13       29.63F FOG
SISSETON         N/A     53  52  96 SW8       29.61S
$$

SDZ017-020-022-023-036>040-048>070-201900-
SOUTHEAST SOUTH DAKOTA

CITY           SKY/WX    TMP DP  RH WIND       PRES   REMARKS
SIOUX FALLS    CLOUDY    57  55  93 SW10      29.66S FOG
HURON          CLOUDY    46  41  82 NW18      29.68R
CHAMBERLAIN    DRIZZLE   47  44  87 NW13      29.75R
MITCHELL       CLOUDY    48  42  80 NW23      29.69R
YANKTON        CLOUDY   N/A N/A N/A W22G28    29.68R
$$

ABBREVIATIONS USED IN REMARKS
   TC - TEMPERATURE IN CELSIUS
  WCI - WIND CHILL INDEX
   HX - HEAT INDEX
  VSB - VISIBILITY





USA.gov is the U.S. government's official web portal to all federal, state and local government web resources and services.